GFSSGP_500_spd_057.txt.gz
Wind_Speed
36 44 42 40 42 41 33 31 31 33 33 33 33 31 28 25 14 10 8 9 7 10 5 0 1 2 2 4 9 10 9 10 13 13 13 14 14 14 15 16 17 17 17 18 18 17 14 14 15
41 40 42 41 44 41 33 34 35 33 35 36 41 36 30 22 20 16 12 14 11 9 3 4 4 6 5 5 9 9 7 8 9 12 14 16 17 17 17 17 17 18 18 19 18 17 17 15 16
42 43 42 43 43 42 36 38 37 35 37 39 41 40 35 33 29 22 22 16 19 6 3 7 10 7 7 7 7 6 5 6 8 11 13 15 16 16 16 16 17 17 18 16 18 19 19 19 19
40 44 44 45 36 42 39 39 42 39 39 40 42 46 42 35 31 30 27 24 21 8 6 10 15 16 10 7 6 5 5 7 8 10 12 13 15 15 16 17 17 17 16 17 18 18 19 20 23
46 43 43 45 43 37 44 44 44 42 41 43 41 45 46 41 33 31 30 29 16 12 12 13 17 18 13 9 9 7 6 7 8 8 10 11 13 13 14 15 16 18 19 19 19 19 20 21 23
48 49 48 46 39 41 56 48 44 42 41 45 44 45 48 44 39 33 33 28 22 14 19 12 16 18 16 16 10 9 10 10 7 8 9 9 11 11 12 13 16 19 21 21 21 20 21 21 22
49 46 49 49 44 45 50 46 48 44 41 42 44 44 47 45 40 41 38 32 24 23 21 15 18 19 19 19 18 16 15 12 10 9 10 10 10 11 11 12 15 18 20 21 22 22 23 23 24
46 49 49 43 50 51 44 53 51 47 44 43 43 45 41 43 42 43 45 40 33 26 23 22 21 20 20 21 20 19 17 15 11 11 12 12 12 13 12 13 15 17 19 20 22 23 26 26 27
47 50 50 44 46 54 48 62 58 48 47 45 43 44 39 43 40 42 43 41 37 27 22 21 23 23 22 21 19 16 16 17 14 13 12 11 12 14 15 13 14 16 17 19 20 22 25 28 30
54 52 51 45 45 47 52 54 66 51 46 46 44 42 41 38 43 42 45 45 43 30 26 24 25 26 26 24 22 19 17 18 16 14 15 14 15 16 17 16 14 14 16 17 20 22 25 28 30
56 55 51 50 46 42 47 44 64 59 48 46 46 40 44 44 45 43 41 47 41 36 34 25 26 29 31 27 24 23 19 17 18 17 18 16 17 19 17 16 16 15 17 20 21 21 24 27 29
45 54 57 51 47 40 43 43 62 65 48 47 45 46 44 46 46 48 48 43 48 44 36 33 28 31 29 26 24 24 22 19 21 21 20 18 16 16 17 18 16 17 18 20 22 24 24 27 27
40 46 52 54 51 45 42 34 51 74 53 50 49 48 48 49 51 49 49 47 44 46 45 34 38 29 33 30 27 29 23 28 23 24 26 22 16 15 18 18 16 18 19 22 24 26 25 27 31
35 39 45 50 50 47 46 41 43 63 60 51 56 50 51 55 53 54 55 52 53 49 44 43 40 34 34 33 36 24 29 29 34 30 29 30 21 19 20 18 15 19 20 22 25 28 29 30 33
31 33 37 42 46 47 46 41 42 44 69 54 64 57 56 54 57 55 59 56 51 50 51 52 44 47 41 37 39 43 27 40 39 37 36 31 27 30 24 22 19 20 19 22 27 31 32 33 35
31 31 33 35 36 37 41 41 42 46 46 53 62 69 58 58 56 59 56 54 58 56 50 52 50 53 45 46 45 35 34 35 36 27 30 32 31 36 32 26 22 24 18 22 28 32 34 35 39
33 33 32 35 34 32 34 37 39 44 43 43 57 67 69 58 58 56 56 58 55 55 57 56 59 58 60 50 51 37 30 32 33 36 36 37 41 37 40 34 26 20 24 22 30 35 39 38 40
37 36 35 35 36 34 34 35 35 39 40 42 42 47 65 70 59 57 61 58 55 54 56 62 58 51 49 50 53 48 33 36 40 48 39 43 54 42 35 35 40 29 25 28 31 38 43 43 45
41 40 39 38 40 39 38 38 36 37 39 40 43 41 45 75 64 65 61 60 61 59 58 57 58 56 57 56 58 58 50 35 44 49 37 43 45 43 47 35 43 39 30 32 29 39 46 47 50
37 39 40 41 42 43 41 40 41 40 41 42 43 45 46 48 51 75 72 66 65 62 58 61 62 60 59 62 60 57 45 44 46 44 42 44 45 47 43 36 41 42 35 40 34 37 45 47 48
32 34 36 38 39 40 41 41 39 40 43 45 47 47 48 50 51 52 63 72 73 69 65 62 62 61 61 59 61 59 56 60 59 57 54 49 48 45 34 32 40 40 38 38 37 39 44 49 48
30 32 34 35 36 37 39 40 36 38 41 44 45 47 49 52 55 57 58 58 68 76 78 70 69 63 61 62 61 61 66 66 61 55 56 54 51 42 40 41 43 42 41 41 40 41 48 48 43
30 31 32 32 33 33 32 38 37 35 38 40 43 45 48 50 54 59 62 64 65 65 65 70 79 74 72 70 69 70 68 68 69 67 63 57 55 46 43 46 47 45 47 48 42 44 48 43 39
30 31 31 31 32 33 32 35 35 34 39 40 42 45 46 48 54 58 61 64 68 69 69 68 67 68 72 83 78 77 80 79 76 67 63 58 51 45 46 49 51 50 49 45 40 44 44 39 37
29 30 31 31 30 32 34 36 34 38 41 46 50 50 53 54 52 53 57 62 65 67 69 71 71 69 67 65 69 77 74 70 69 63 54 53 52 46 44 49 51 53 49 42 40 41 40 36 37
27 28 28 31 30 30 32 37 33 36 35 37 50 56 57 60 58 57 58 59 61 64 68 68 70 70 69 68 65 61 60 62 60 60 55 54 45 45 48 52 52 49 46 38 39 41 37 36 38
27 26 26 27 26 28 29 30 28 27 33 46 50 55 62 65 66 66 65 64 62 61 64 68 70 70 70 69 67 63 60 57 58 55 53 54 45 46 51 54 48 48 41 38 38 40 35 37 38
27 25 22 22 26 25 23 22 19 26 36 43 50 56 60 64 67 70 73 73 70 70 68 66 68 70 71 70 67 64 62 56 54 54 54 50 44 45 48 45 44 48 41 36 37 37 37 38 37
30 24 22 24 24 26 27 21 26 31 31 39 46 50 49 52 57 58 59 66 73 76 75 73 70 69 69 69 68 65 61 59 57 57 54 49 44 45 44 43 47 45 38 36 37 35 38 39 35
26 25 23 23 24 28 30 23 31 36 35 36 43 47 51 46 40 39 39 39 48 56 68 76 76 71 69 69 68 66 63 60 58 58 56 51 47 48 45 44 48 43 40 38 37 37 38 37 32

GFSSGP_500_spd_060.txt.gz
Wind_Speed
36 39 44 41 41 43 37 38 37 37 39 37 34 31 30 28 24 17 16 13 10 9 9 7 3 3 0 1 4 6 6 7 8 10 11 13 13 15 16 16 17 17 16 15 14 14 14 13 14
40 37 41 47 43 41 35 40 37 42 42 38 37 35 29 31 28 22 20 19 18 15 12 9 3 4 6 3 3 4 4 6 8 8 8 11 13 15 15 15 15 16 16 16 16 16 15 14 15
44 40 38 41 50 42 36 43 42 45 42 40 40 38 35 36 30 24 23 20 20 18 13 10 4 6 6 8 3 1 2 4 6 8 8 10 13 13 12 12 14 14 15 15 16 16 16 15 15
42 43 42 42 43 52 49 46 43 45 43 41 40 41 43 37 32 25 25 22 20 20 16 11 8 9 10 9 7 4 0 3 5 7 8 9 10 12 12 12 13 14 14 13 14 15 15 16 18
44 43 44 44 46 47 46 54 49 46 42 41 42 44 45 43 34 29 27 28 25 19 17 15 12 11 12 11 10 8 4 3 5 6 7 8 8 10 10 11 12 13 15 14 14 14 15 16 18
48 45 45 43 43 47 44 58 52 46 42 42 42 42 46 46 39 34 31 29 30 27 21 15 16 13 13 13 12 11 7 7 6 5 7 7 7 7 9 10 12 13 14 15 14 14 15 16 18
52 49 48 47 45 49 45 48 58 47 44 43 41 41 44 48 45 40 37 32 32 31 26 20 19 15 15 15 17 16 17 12 9 7 7 8 9 9 10 12 13 15 14 13 15 15 17 18 19
56 54 51 51 51 49 46 47 61 48 44 48 42 39 41 43 45 46 42 37 36 35 31 26 24 20 18 18 19 18 21 17 12 10 10 9 10 10 11 13 14 14 13 13 15 16 18 20 22
52 57 56 52 52 47 48 49 48 63 46 48 50 41 38 40 41 45 44 42 42 39 36 33 29 23 23 23 21 20 21 18 14 11 11 10 11 12 13 14 14 13 14 14 15 16 18 21 23
43 56 56 53 48 51 45 45 52 55 51 46 51 49 41 38 41 44 47 45 42 44 42 36 32 30 27 26 24 23 22 20 16 13 12 12 13 14 16 15 14 15 14 15 14 15 17 19 22
34 43 50 53 58 50 47 47 40 51 69 48 54 52 45 42 42 46 48 49 49 53 49 36 32 32 31 29 27 27 24 20 20 17 16 16 17 17 14 14 13 18 17 17 16 17 18 19 21
36 36 43 56 55 56 51 45 46 42 54 58 55 50 48 47 46 48 50 48 48 53 50 38 38 35 33 33 30 29 28 25 23 21 21 20 20 19 15 15 14 18 20 20 18 17 18 20 21
35 39 39 44 48 54 55 50 48 49 51 69 61 55 51 52 53 56 53 49 50 52 51 46 42 41 38 36 35 32 32 28 30 30 26 24 23 23 19 20 18 18 21 19 19 21 22 23 24
36 37 38 42 43 48 55 55 54 52 46 38 70 63 57 57 58 60 59 56 51 53 48 48 46 42 49 39 32 33 34 36 37 36 32 29 26 25 23 23 21 21 21 20 21 23 25 25 27
32 32 35 39 38 41 49 53 54 53 47 39 57 67 63 60 63 64 64 63 59 55 53 53 51 50 47 39 44 43 41 43 35 32 33 33 32 33 30 28 25 26 25 20 23 27 26 28 32
32 32 32 37 36 35 38 41 50 50 49 46 44 71 66 64 65 64 71 64 63 60 55 57 54 50 52 52 58 48 49 47 37 35 34 43 39 37 35 31 35 35 30 26 26 30 25 31 34
33 31 33 37 33 33 33 36 45 43 47 47 42 54 68 67 66 67 63 60 71 65 60 57 55 56 57 68 49 46 48 44 44 40 39 39 39 25 37 36 39 39 35 29 35 31 33 33 35
38 34 36 35 36 33 34 34 35 37 42 42 42 46 55 69 66 67 68 66 54 67 73 61 59 66 53 64 45 47 61 50 47 46 46 37 34 31 31 34 52 37 46 37 38 25 32 37 38
39 38 38 38 39 35 36 35 34 35 37 39 41 43 42 64 66 66 68 68 68 69 67 77 68 69 63 47 55 61 57 52 54 46 36 34 40 24 25 49 37 49 43 38 32 36 36 37 36
34 38 38 41 41 41 39 38 36 35 37 37 38 41 43 44 56 66 69 67 70 69 70 68 65 63 57 60 57 60 57 45 49 46 43 36 39 37 32 38 27 40 41 44 24 33 39 36 37
31 33 37 37 40 39 41 40 41 39 39 40 40 40 43 45 45 48 74 72 68 68 68 69 65 61 63 66 66 65 75 53 52 52 55 41 38 34 38 35 44 51 44 45 37 39 42 42 40
30 35 34 34 34 33 37 34 38 36 39 41 43 45 47 49 48 48 49 63 72 73 66 68 70 70 68 68 68 67 62 56 55 55 53 50 39 37 46 48 48 49 48 41 42 41 42 40 42
30 32 33 32 33 33 32 34 33 32 36 39 41 43 45 49 51 52 51 52 52 80 76 74 70 70 67 66 67 68 65 60 59 63 49 52 47 45 44 46 51 51 48 42 43 42 43 41 39
33 33 32 31 31 31 30 32 21 31 30 35 39 41 43 45 48 51 54 55 56 57 60 62 79 75 74 70 64 62 61 60 61 61 61 56 49 52 56 56 57 51 45 43 47 46 40 39 38
32 32 27 24 27 19 33 29 27 30 30 34 37 40 41 42 44 47 51 55 56 58 61 61 61 67 79 81 76 70 68 68 66 63 60 60 61 64 60 58 49 49 43 50 44 44 38 37 40
29 32 27 26 17 17 34 31 33 24 29 35 39 41 43 45 46 47 49 51 53 59 61 63 65 66 68 70 71 70 72 77 76 73 71 69 67 62 60 51 50 48 50 43 45 41 39 37 38
27 30 32 34 31 33 30 28 24 28 28 33 35 39 44 48 51 54 55 55 56 58 59 62 65 68 69 71 71 70 67 65 64 67 65 69 73 71 64 52 55 44 42 44 45 43 38 37 37
27 31 32 30 31 28 24 22 19 27 25 31 35 41 41 42 45 51 57 61 63 63 64 65 65 65 69 71 71 70 68 67 64 62 58 57 61 62 60 48 48 45 43 44 42 42 37 37 39
31 34 34 29 27 25 23 16 24 24 30 32 34 37 39 40 37 41 45 57 67 69 71 71 71 70 68 67 70 72 70 66 64 62 58 53 53 54 50 45 47 45 42 39 43 40 38 37 39
29 29 28 26 25 25 27 23 27 23 27 29 32 35 38 41 45 47 45 46 50 62 71 77 76 76 76 73 69 67 69 69 65 60 56 55 53 50 47 44 44 42 38 37 40 40 41 40 38

GFSSGP_500_spd_063.txt.gz
Wind_Speed
36 37 37 38 36 37 35 28 25 40 43 38 48 32 25 27 23 26 32 24 18 15 14 13 10 7 4 1 1 1 1 3 4 6 7 8 9 11 11 12 14 15 15 13 13 12 11 11 11
41 37 36 39 38 36 31 21 40 35 35 45 42 33 28 30 37 33 34 24 22 19 16 17 13 9 8 7 5 4 2 1 3 5 6 7 9 10 11 12 13 15 16 15 15 14 12 11 11
44 41 38 39 44 43 20 29 35 31 48 43 39 41 39 41 40 29 23 24 22 20 19 19 15 10 9 10 9 6 6 3 0 4 5 7 8 10 10 11 13 15 16 15 14 15 15 14 13
44 45 44 43 40 44 44 40 47 49 49 45 46 38 43 47 34 29 26 24 23 22 21 21 17 12 10 11 12 9 9 6 2 2 4 5 6 7 9 10 12 14 14 13 13 15 15 15 14
44 44 47 50 45 42 46 53 50 50 40 46 45 41 47 51 39 32 29 29 26 25 25 22 20 15 12 11 11 12 11 10 6 4 3 4 5 7 7 10 12 13 14 13 12 14 15 16 18
46 45 49 51 50 42 50 49 54 53 42 43 49 46 45 51 42 35 32 31 28 28 26 25 26 19 14 12 13 13 13 12 9 8 6 4 4 5 6 8 11 14 16 12 11 12 14 15 17
47 49 51 51 45 30 55 50 49 58 44 28 46 54 43 54 45 40 37 34 32 33 30 28 27 23 20 16 14 16 16 17 15 13 11 9 7 5 6 7 10 13 12 11 10 9 11 13 16
36 48 54 50 48 39 35 51 50 50 51 45 55 40 49 58 44 46 43 38 36 36 35 34 33 33 24 21 18 18 19 19 20 18 14 11 10 7 8 8 11 12 11 13 10 10 11 14 16
31 36 47 50 40 38 36 36 51 49 48 56 51 45 56 44 44 48 49 45 41 39 39 36 35 33 30 26 22 21 22 20 20 19 18 14 12 11 10 10 11 13 15 15 13 11 12 14 14
33 34 31 39 38 38 39 36 46 50 52 48 53 43 44 43 47 48 52 50 46 42 42 41 41 38 33 29 28 26 24 22 20 20 19 18 15 15 14 14 13 15 16 18 18 17 16 16 17
34 33 28 29 38 37 35 48 39 50 51 47 50 45 52 42 44 48 54 54 52 46 48 45 44 41 36 33 31 31 26 25 23 23 22 21 19 19 18 17 17 16 17 18 20 20 19 19 20
37 34 33 33 34 39 52 51 51 51 49 49 53 59 65 44 49 50 54 57 54 52 52 50 49 44 38 37 37 35 31 28 27 27 26 25 24 23 22 19 21 19 20 21 20 20 21 21 22
37 33 36 39 43 47 49 53 53 61 54 53 45 50 51 53 53 52 54 57 57 56 54 53 52 45 41 38 39 40 35 34 31 31 30 30 30 26 25 21 24 23 21 22 24 23 24 24 23
34 37 37 40 39 44 52 45 50 57 57 60 50 45 43 55 57 57 57 61 59 59 57 57 52 48 44 54 55 52 37 42 38 32 34 34 32 30 27 27 27 26 25 27 27 24 26 26 26
34 34 35 38 37 40 43 47 44 49 57 62 59 46 42 57 62 62 63 64 62 64 62 65 68 60 55 42 49 42 42 42 37 41 40 37 35 34 32 31 31 30 30 30 32 31 26 29 28
33 35 35 34 35 39 42 42 41 46 53 59 57 52 47 52 66 68 66 68 67 67 65 66 68 64 64 60 63 52 49 52 48 45 45 47 41 38 37 34 35 35 31 31 36 32 39 36 27
36 34 33 28 40 38 38 36 34 46 46 48 47 50 50 50 56 70 70 71 72 71 70 68 62 61 56 61 58 58 55 46 48 48 51 44 39 38 44 41 33 37 28 30 39 36 38 35 26
21 27 34 26 31 37 37 34 34 44 39 39 42 45 47 48 43 71 73 74 74 73 73 69 65 67 69 70 64 50 56 53 46 47 50 42 39 42 43 40 31 30 31 33 32 31 30 22 34
42 42 30 21 29 45 36 35 34 39 41 36 37 41 44 47 49 61 78 77 78 76 79 70 71 72 71 69 75 62 61 61 56 58 51 50 41 44 44 42 31 28 35 28 29 26 31 27 35
32 39 42 41 42 48 43 40 38 39 37 37 35 36 41 47 46 48 77 79 77 81 77 83 83 81 84 68 71 59 67 67 66 58 54 57 44 49 42 29 38 32 34 21 35 30 32 39 41
31 33 34 32 39 49 41 42 41 39 41 40 38 39 40 43 46 45 39 80 77 82 77 74 70 79 73 76 68 70 71 69 63 59 45 56 41 42 47 41 35 36 30 31 40 30 33 39 43
30 23 32 40 39 35 35 38 29 40 45 44 43 42 41 41 40 42 44 46 75 77 86 80 65 62 70 84 69 64 69 69 61 65 47 51 49 41 48 50 45 49 32 29 31 37 42 43 42
32 32 39 34 35 35 33 36 31 24 36 39 41 44 44 44 43 44 45 48 50 64 80 74 77 67 64 65 64 75 61 61 55 46 52 52 55 50 52 45 55 53 30 32 41 46 40 45 36
34 35 35 34 30 33 29 27 20 22 29 35 36 38 40 43 44 46 48 49 51 51 53 82 76 79 73 69 64 65 70 60 56 58 56 57 52 53 56 54 55 44 40 35 42 43 41 48 34
29 32 25 21 22 25 20 24 22 28 36 27 30 32 34 38 41 42 43 47 50 53 54 54 58 61 78 79 69 71 67 70 67 63 63 59 56 57 57 49 50 44 41 47 48 50 43 49 37
25 17 22 22 22 16 18 22 21 28 39 29 31 32 33 35 37 39 40 43 45 49 52 54 59 59 58 71 85 74 74 75 64 70 67 65 64 63 61 54 46 46 41 52 51 53 50 45 40
23 30 26 31 32 36 25 22 26 30 30 30 31 33 36 37 38 39 40 42 45 47 47 49 52 58 61 62 61 62 65 79 81 76 70 71 65 60 60 61 54 55 55 56 57 44 43 42 41
31 30 32 27 27 26 24 21 24 29 30 38 34 32 34 37 40 42 42 42 46 49 53 55 53 54 57 60 64 65 64 62 65 72 75 71 69 67 68 69 64 64 63 59 57 48 41 47 43
28 30 33 32 28 20 24 16 29 17 24 34 29 32 34 36 39 41 43 45 46 49 53 56 60 61 61 60 60 63 65 64 63 62 61 62 63 59 57 58 57 56 52 48 46 45 46 46 43
32 31 33 31 31 32 37 37 19 22 27 36 32 31 36 37 37 40 43 46 50 55 57 58 60 61 65 67 67 65 63 63 65 64 62 60 59 58 55 53 51 48 46 43 41 44 41 40 38

GFSSGP_500_spd_069.txt.gz
Wind_Speed
40 38 37 38 35 34 28 17 18 20 15 23 28 35 36 37 36 28 28 23 22 26 14 13 15 16 14 12 8 6 5 4 5 6 6 5 4 3 3 3 5 8 9 10 11 12 12 11 11
40 40 38 41 37 34 26 22 28 27 26 23 32 36 42 42 38 33 25 20 20 22 18 16 18 18 17 16 13 10 7 5 6 8 9 6 3 2 2 3 5 7 9 11 12 12 11 11 11
42 43 40 43 39 39 26 35 35 32 32 32 35 40 49 48 49 42 36 23 19 21 21 20 20 21 20 18 16 13 9 8 7 8 8 7 4 1 2 3 6 7 9 9 10 10 10 11 12
41 45 46 47 42 35 33 41 39 29 34 36 39 41 52 51 49 49 46 34 28 27 22 23 23 22 23 22 20 17 15 11 9 9 10 9 7 4 3 2 3 6 10 10 8 9 11 12 14
39 42 45 47 47 40 32 38 51 34 29 41 38 46 54 55 54 52 45 33 32 28 28 28 26 24 24 24 23 21 19 16 13 12 12 10 9 6 4 4 4 7 8 9 10 11 12 14 15
41 42 45 44 44 43 37 35 47 46 28 27 44 48 60 66 58 61 60 46 34 32 32 31 28 28 26 26 23 23 21 19 18 15 12 11 9 7 4 5 6 7 9 10 12 12 13 14 16
36 37 41 42 43 42 40 41 48 44 35 29 30 42 58 63 67 59 60 50 42 34 30 32 32 31 29 27 26 24 21 22 19 18 16 13 12 13 10 8 7 9 9 10 12 12 12 16 17
34 35 35 37 39 41 39 39 48 44 51 40 29 33 54 54 59 62 52 47 50 39 37 34 35 34 33 32 29 27 23 22 24 22 20 20 18 15 14 13 10 9 9 10 10 10 12 17 18
35 37 33 30 31 33 36 39 41 40 39 31 33 43 51 61 63 56 48 45 50 46 41 42 38 36 36 35 32 29 27 26 25 25 22 19 18 18 16 14 13 13 12 11 12 11 13 15 15
38 38 34 32 32 32 33 41 38 29 35 38 37 37 33 50 59 48 49 47 48 54 46 44 43 41 39 36 35 35 32 29 26 24 22 20 19 17 17 15 16 15 15 15 15 14 14 15 17
37 37 35 36 36 33 30 38 36 28 36 35 39 40 35 37 46 40 41 48 46 57 50 48 49 46 45 42 40 38 34 33 28 25 23 22 21 20 20 19 18 17 18 18 17 14 14 15 15
40 40 40 39 39 37 37 36 45 38 36 31 37 44 41 40 48 54 36 43 50 53 58 50 53 51 49 45 43 41 39 36 32 29 27 25 25 23 23 22 21 20 20 21 19 19 15 20 17
40 40 41 41 42 42 39 36 46 48 41 40 41 40 38 38 40 43 36 43 49 51 58 59 51 55 52 50 48 45 44 42 38 34 31 28 28 28 26 26 23 22 23 22 22 22 17 19 21
37 41 42 43 43 44 45 43 44 43 56 39 37 48 50 43 46 50 28 41 48 54 57 62 55 55 56 54 52 51 50 45 44 40 35 34 32 32 30 29 27 26 25 25 25 22 17 17 16
39 43 41 39 39 42 46 49 43 46 55 55 63 54 59 54 41 41 43 41 40 52 56 60 60 53 58 58 57 52 52 49 54 45 43 39 38 39 33 34 33 31 28 28 27 26 21 18 11
40 41 40 35 36 39 37 45 39 40 53 52 57 61 55 55 55 57 57 51 43 39 59 63 64 61 61 58 60 63 58 57 50 47 47 45 46 43 40 41 39 37 32 32 29 26 23 18 20
38 40 41 37 32 33 36 42 38 39 45 49 52 51 51 56 55 61 43 48 48 45 46 62 66 64 64 66 64 66 62 59 65 56 51 48 52 48 47 47 44 39 34 33 32 25 22 22 21
32 36 37 36 30 26 26 41 37 40 44 44 47 51 52 50 51 49 44 46 50 53 48 53 67 61 60 67 71 72 69 66 62 54 64 55 55 54 52 49 45 44 38 39 34 32 28 23 20
32 32 31 33 31 24 31 29 35 42 40 42 44 47 46 46 46 42 43 45 49 49 53 56 57 69 65 63 69 74 74 71 73 71 68 58 60 61 55 52 51 49 41 35 26 31 28 30 29
30 32 33 37 40 33 27 35 44 45 47 45 38 47 45 44 42 41 42 42 47 47 43 51 60 62 70 68 72 72 77 76 76 66 71 65 70 62 61 60 54 51 45 36 36 35 31 22 32
32 29 39 43 40 42 38 32 30 44 44 36 37 40 40 43 39 36 40 41 44 47 42 49 51 55 72 73 72 75 75 78 76 82 79 79 60 67 60 59 58 55 49 43 47 41 29 27 31
39 35 38 36 24 36 47 43 48 50 53 48 44 41 44 45 45 42 40 43 43 43 41 45 49 46 57 75 78 74 71 80 79 74 67 75 60 65 72 60 59 63 55 46 46 43 32 33 29
33 27 34 35 37 39 43 54 53 56 50 43 38 37 45 50 49 45 43 44 43 42 43 39 46 43 56 58 69 83 79 72 80 82 80 82 80 74 63 68 70 61 56 47 49 50 35 30 26
34 38 31 29 39 38 24 44 46 38 34 31 35 32 34 38 41 46 49 48 46 40 39 39 40 46 53 46 55 71 86 84 72 68 77 75 85 79 78 75 70 54 60 60 56 62 40 36 24
38 31 39 31 35 36 26 34 32 20 20 23 31 33 36 36 35 39 44 45 46 48 46 43 41 41 45 51 47 44 64 92 75 81 63 56 54 75 72 65 60 64 56 55 46 58 53 31 27
40 42 40 39 33 24 27 29 18 18 26 20 29 36 41 43 38 25 30 40 44 47 48 47 46 45 44 47 48 47 42 42 58 78 79 67 63 58 49 59 51 50 45 56 66 61 31 24 25
32 27 25 40 24 28 23 21 28 34 20 20 29 38 42 41 35 40 34 32 37 40 42 41 42 46 47 47 49 47 46 44 44 43 41 71 81 75 59 63 62 71 54 63 44 30 16 30 28
34 28 27 29 31 28 26 27 34 27 25 29 26 31 36 41 41 42 38 37 35 33 38 39 38 40 42 43 45 48 49 50 50 47 41 37 39 41 48 56 57 56 59 57 37 36 30 33 32
28 27 29 31 33 36 36 27 29 38 35 28 35 34 36 44 47 43 43 43 42 40 38 38 37 37 38 39 39 41 43 44 46 47 46 46 45 44 44 44 53 63 62 54 41 39 39 35 34
21 29 29 33 29 28 32 25 28 32 25 24 22 37 42 41 38 39 40 43 45 45 43 42 42 42 42 42 43 43 43 44 44 44 43 45 45 46 47 45 38 51 59 54 48 44 40 37 37

GFSSGP_500_spd_072.txt.gz
Wind_Speed
41 42 39 35 33 30 25 17 26 31 31 32 31 22 27 29 23 26 26 23 20 17 17 17 12 10 12 10 10 7 4 4 4 6 7 6 7 6 5 4 3 4 6 6 7 7 8 10 11
45 43 41 40 37 32 23 33 35 35 33 25 35 31 27 27 30 31 29 26 21 20 16 14 12 13 15 14 13 11 8 5 4 5 7 7 7 6 5 5 4 5 7 9 9 9 9 11 12
47 45 45 47 44 35 25 32 40 38 34 28 29 36 31 29 32 37 37 33 25 17 17 16 17 15 17 16 15 15 10 9 6 4 5 7 8 8 6 5 4 6 9 10 8 7 9 9 11
50 47 50 50 47 37 31 33 43 43 39 32 37 35 37 37 37 41 42 36 29 28 22 21 19 18 19 19 17 16 16 12 10 8 7 7 9 10 7 6 5 5 9 10 7 6 7 9 11
44 48 51 53 50 40 32 36 44 46 44 40 44 43 42 42 44 47 48 45 38 34 33 28 25 24 23 22 21 19 16 17 14 13 12 10 11 11 9 7 6 5 6 5 7 7 8 11 13
44 43 47 48 47 44 32 39 44 50 36 41 44 46 50 50 50 49 53 49 46 43 41 35 29 27 26 25 23 22 19 16 16 16 15 13 11 11 10 9 8 3 3 5 7 8 10 14 13
41 43 43 43 43 42 35 40 42 43 46 50 47 48 50 55 55 57 54 52 49 44 39 38 36 31 30 28 26 24 22 20 16 16 17 16 15 14 14 13 11 10 8 7 6 7 11 13 12
38 43 41 43 44 44 34 44 48 49 50 39 49 49 55 53 57 63 61 54 49 49 47 45 42 35 32 31 29 28 26 24 20 18 18 19 19 18 17 16 13 12 11 9 10 10 10 10 12
40 42 37 33 35 34 35 42 49 54 54 50 44 43 50 54 58 62 63 55 54 56 51 53 48 39 35 35 33 32 31 28 23 21 21 20 20 19 18 16 14 13 13 13 12 11 12 12 13
37 37 34 31 34 33 32 39 46 54 59 58 49 44 49 49 49 49 56 54 47 36 49 49 51 45 39 37 37 36 34 31 28 26 24 23 21 20 17 15 13 13 14 14 14 10 8 11 12
37 37 37 35 37 37 35 37 44 51 56 58 64 57 53 49 44 48 51 55 47 41 47 47 55 51 46 41 39 40 37 35 33 31 27 27 24 22 19 17 16 15 16 17 17 13 10 13 14
39 41 40 38 39 39 40 33 43 50 50 56 57 46 51 54 51 50 45 51 53 47 37 43 52 56 52 48 43 43 41 38 37 34 31 29 29 26 25 21 19 19 18 19 19 17 14 11 11
42 41 44 43 42 42 42 42 38 44 49 53 54 57 50 48 47 44 46 42 47 47 50 38 48 54 56 54 50 47 45 42 40 38 35 34 32 31 30 26 25 23 23 23 21 20 20 16 13
38 43 43 45 46 47 48 47 42 42 52 56 56 56 47 45 46 47 41 37 41 37 45 45 49 52 57 57 56 52 49 46 46 43 40 38 37 35 33 32 29 28 27 27 25 23 22 19 15
35 37 39 40 41 42 45 48 44 43 59 57 56 59 56 53 52 53 45 36 39 42 44 50 50 54 54 53 56 57 55 53 50 48 44 42 42 39 39 37 33 35 34 31 29 28 26 25 20
35 38 39 35 38 38 38 49 43 34 45 61 59 60 58 56 55 52 46 43 45 33 31 44 49 57 55 55 52 51 53 57 56 55 53 50 45 44 44 44 41 41 40 36 35 32 30 27 22
34 35 37 36 37 38 34 45 42 36 38 49 64 63 65 64 59 53 51 49 41 41 43 47 44 56 58 55 62 52 63 64 60 60 57 51 44 47 50 48 47 48 46 42 42 37 33 32 26
34 38 39 40 34 40 40 48 49 45 39 40 48 66 65 64 64 58 57 50 50 49 44 44 55 47 61 58 59 67 66 63 60 65 60 58 60 57 54 49 51 56 51 48 47 45 30 34 31
37 39 41 40 40 42 45 49 52 52 42 47 46 53 61 66 68 61 54 53 45 47 44 41 52 54 51 63 67 63 66 69 70 69 68 68 70 66 50 54 52 58 58 52 50 47 37 33 29
39 41 42 42 42 43 46 50 51 47 49 51 51 48 49 52 56 57 54 52 48 47 47 44 40 59 58 47 65 72 64 68 74 77 71 66 69 65 61 50 59 64 62 58 54 50 44 37 30
38 38 39 42 43 42 47 51 49 37 43 46 51 54 51 45 47 52 50 49 46 48 47 40 43 48 63 58 59 55 75 74 72 72 64 62 66 70 69 59 68 63 68 60 61 55 53 41 39
38 33 37 38 38 42 40 49 46 46 46 47 48 47 44 41 44 45 49 47 47 46 46 44 43 44 54 63 56 61 59 74 77 74 72 74 64 64 76 78 63 60 81 67 64 64 55 51 41
36 36 37 37 36 36 37 44 36 51 52 53 54 55 52 43 46 48 48 48 49 48 46 43 43 40 46 55 58 58 59 60 65 79 80 72 67 77 79 77 70 76 66 71 59 65 67 45 43
35 37 40 41 41 37 29 38 34 28 46 60 59 59 47 50 42 44 41 43 45 46 47 45 40 39 40 49 52 57 54 64 59 64 79 77 73 76 64 68 73 72 78 70 71 68 75 59 57
40 39 43 44 46 41 29 34 26 31 34 45 64 60 54 52 42 44 41 40 40 43 47 47 41 42 42 43 48 51 54 54 60 66 66 69 82 80 73 58 70 71 70 68 68 66 65 52 50
39 24 33 39 45 45 40 34 23 28 31 32 45 44 44 43 39 42 36 36 36 40 42 45 47 46 44 44 43 47 53 56 53 46 54 71 74 75 83 83 62 63 74 78 75 79 67 61 53
37 33 30 35 36 37 37 35 23 26 29 31 32 32 44 42 35 34 38 36 31 37 33 38 44 43 43 44 46 46 47 47 50 51 48 44 45 52 61 72 83 60 60 50 51 54 53 37 42
41 25 30 32 35 31 32 25 30 24 28 31 35 39 39 40 45 48 50 49 46 45 40 37 40 41 37 40 44 48 49 48 47 47 47 48 43 39 39 44 70 73 76 63 57 60 46 30 35
35 29 30 28 27 29 26 29 27 29 31 29 33 40 45 46 49 53 52 51 48 42 42 43 41 39 37 35 39 43 45 46 47 47 46 47 48 41 42 41 33 40 47 70 52 52 44 35 22
23 30 36 33 29 28 31 31 33 27 31 26 27 24 38 39 40 41 44 45 41 39 37 38 40 39 37 36 36 38 39 40 40 41 42 42 44 42 43 40 39 38 37 34 38 43 40 36 29